Location: Beaurecueil
(43.5122°N, 5.5450°E)
Time: 14:42:42
(UTC+00:00)

Cosmos 2285 Rocket - Pass Details

Date: 18 September 2020
Orbit: 970 x 1000 km, 74.0° (Epoch: 30 October)

Event Time Altitude Azimuth Distance (km) Brightness Sun altitude
Rises 19:30:50 0° 183° (S) 3,648 6.8 -20.0°
Reaches altitude 10° 19:33:24 10° 178° (S) 2,707 6.1 -20.5°
Maximum altitude 19:39:27 53° 104° (ESE) 1,190 4.0 -21.5°
Drops below altitude 10° 19:45:34 10° 29° (NNE) 2,739 6.3 -22.5°
Sets 19:48:11 0° 25° (NNE) 3,695 7.0 -22.9°
